Center Banner
 

Harrisburg Hot Cider Hustle 5k

Age Group Results

November 04, 2018




Men: Top Finishers 0- 0 1-14 15-19 20-24 25-29 30-34 35-39 40-44 45-49 50-54 55-59 60-64 65-99
Women: Top Finishers 1-14 15-19 20-24 25-29 30-34 35-39 40-44 45-49 50-54 55-59 60-64 65-99

Hot Cider Hustle

Top

Male Overall Winners

Place Name City Bib No Age Overall Total Time Pace
1 DARREN SHAFFER 15785 16 1 18:03.01 5:49/M
2 JOSEPH PERRY 15375 29 2 18:12.42 5:52/M
3 WILLIAM BROWN 15713 16 3 18:16.54 5:54/M
Top

Female Overall Winners

Place Name City Bib No Age Overall Total Time Pace
1 MARY HIGGINS 15455 28 4 18:32.32 5:59/M
2 LAURA JACOBS 15976 31 10 19:58.10 6:26/M
3 AMANDA RAUDABAUGH 15469 29 12 20:06.07 6:29/M
Top

Male No Age Provided

Place Name City Bib No Age Overall Total Time Pace
1 Unknown Partic. 15331 15331 670 38:19.99 12:22/M
2 Unknown Partic. 16096 15865 686 39:11.40 12:38/M
Top

Male 14 and Under

Place Name City Bib No Age Overall Total Time Pace
1 BRIAR THOMPSON 15633 14 13 20:06.59 6:29/M
2 CONNER MORROW 15343 14 14 20:07.31 6:29/M
3 MAISON ATTICKS 15924 13 59 23:21.93 7:32/M
4 JOSHUA FOGELSANGER 15569 14 69 23:45.77 7:40/M
5 PATRICK EINOLF 15174 10 71 23:47.62 7:40/M
6 COOPER MASCHMEYER 15584 10 100 24:51.72 8:01/M
7 AIDAN CALLAHAN 15841 12 121 25:39.28 8:16/M
8 PERRY WRIGHT 15241 13 124 25:47.00 8:19/M
9 FRANCIS MUSCATELL 15855 11 128 25:51.00 8:20/M
10 MICHAEL SHAMBAUGH 15623 12 142 26:11.66 8:27/M
11 DOMINIC MUSCATELL 15856 12 153 26:27.21 8:32/M
12 ZANE RICHWINE 16061 8 164 26:33.39 8:34/M
13 MATTHEW RAUDABAUGH 15470 14 172 26:45.45 8:38/M
14 BRAXTON REBER 15826 10 175 26:47.54 8:38/M
15 ZANE MCCOY 15624 12 202 27:18.67 8:48/M
16 WILLIAM STAMBAUGH 15434 14 213 27:34.88 8:54/M
17 ANDREW WEBER 16074 14 218 27:39.31 8:55/M
18 CONNOR CROWL 15030 10 240 28:13.05 9:06/M
19 NOLAN JONES 15401 13 267 28:44.49 9:16/M
20 ERIC SIMS 15879 8 326 29:52.07 9:38/M
21 LOGAN FORBES 15776 11 351 30:17.19 9:46/M
22 TREY CRAWFORD 15487 12 420 31:18.64 10:06/M
23 GAVIN FAIRFIELD 15486 13 421 31:18.69 10:06/M
24 LUKE SABOLCHICK 15586 13 426 31:28.54 10:09/M
25 WADE DECKMAN 15864 14 436 31:47.30 10:15/M
26 DREW BENNETT 16086 11 444 31:58.82 10:19/M
27 LANDON MELLOTT 15366 10 446 32:03.14 10:20/M
28 MASON RICHWINE 15767 12 529 33:47.50 10:54/M
29 JORDYN GRAHAM 15257 6 537 34:02.24 10:59/M
30 JIMMY JOHNSON 15213 12 598 36:03.53 11:38/M
31 GAVIN KRODEL 15972 12 696 39:38.03 12:47/M
32 ZACH FULTZ 15404 10 724 41:10.62 13:17/M
33 LANDON LUBART 15525 8 729 41:24.05 13:21/M
34 ROBERT STRICKLAND 15577 9 837 47:01.90 15:10/M
35 CHAUNCEY PAPENFUSE 16080 10 855 48:10.59 15:32/M
36 JACKSON ROZELLE 15550 12 884 49:40.28 16:01/M
Top

Female 14 and Under

Place Name City Bib No Age Overall Total Time Pace
1 EMMA O'TOOLE 15872 14 53 23:12.49 7:29/M
2 CLAIRE SHAFFER 15156 12 99 24:50.33 8:01/M
3 KENDALL BENINI 15993 9 110 25:23.48 8:11/M
4 CADENCE CHIZMAR 15996 9 112 25:26.87 8:12/M
5 ABBIE MOTTO 15484 14 127 25:49.67 8:20/M
6 ALLY MAYLOCK 15642 14 160 26:31.03 8:33/M
7 KAYDEN TUM 15943 8 166 26:38.31 8:35/M
8 AVA WRIGHTSON 15244 11 194 27:08.19 8:45/M
9 MADDIE WICK 15573 13 204 27:19.89 8:49/M
10 AVA PATERNITI 15663 14 216 27:38.50 8:55/M
11 REBECCA EBERSOLE 15601 13 229 27:48.58 8:58/M
12 BROOKE SILFEE 16081 14 243 28:15.15 9:07/M
13 EMMA HATHAWAY 15007 14 259 28:38.85 9:14/M
14 MOLLY KAROM 15143 12 280 29:00.04 9:21/M
15 ADDI YOSPA 15032 12 291 29:15.94 9:26/M
16 REBEKAH WILEY 15870 14 332 29:57.97 9:40/M
17 ELLLIE STIFFLER 15869 14 333 29:58.54 9:40/M
18 ASIA DASKALAKIS 16095 13 359 30:19.09 9:47/M
19 MEGAN KOSH 15270 10 450 32:10.08 10:23/M
20 MCKENNA MELLOTT 15369 9 465 32:32.80 10:30/M
21 ALANA GOODMAN 15937 11 475 32:41.19 10:33/M
22 NICOLE MIDDLESWORTH 15626 10 483 32:47.03 10:35/M
23 SAMANTHA DUNCAN 15907 12 524 33:37.21 10:51/M
24 ABIGAIL JOHNSON 15214 9 568 35:04.47 11:19/M
25 ALEXANDRA EARLEY 15312 9 573 35:06.51 11:19/M
26 HANNAH STRICKLAND 15576 12 632 37:05.44 11:58/M
27 VIVIENNE CONNOR 15955 11 645 37:21.91 12:03/M
28 ISABELLA BILOUS 15927 6 711 40:45.11 13:09/M
29 CLAIRE LICAUSI 15941 6 785 43:50.40 14:08/M
30 KYRA CREAM 15083 5 788 44:02.90 14:12/M
31 MADDIE RANK 15709 14 815 46:11.38 14:54/M
32 KATELYN EARLEY 15314 7 839 47:05.25 15:11/M
33 KAYLYN COSTELLO 15563 11 909 52:32.43 16:57/M
34 NORA BERGERON 15266 7 912 52:42.42 17:00/M
35 ALANA DUNCAN 15908 10 950 56:54.84 18:21/M
Top

Male 15 to 19

Place Name City Bib No Age Overall Total Time Pace
1 KRISTOPHER BRINTON 15895 18 6 18:49.29 6:04/M
2 NATHAN FOGELSANGER 15568 17 21 20:46.35 6:42/M
3 JUSTUS STEPHENS 15719 18 22 20:47.36 6:42/M
4 MATTHEW SCIAMANNA 15974 17 35 22:08.70 7:08/M
5 JACK COULSTON 15517 18 43 22:41.65 7:19/M
6 MAXWELL BOYER 15883 15 48 22:51.40 7:22/M
7 ANDREW CLANCY 15539 17 51 22:55.17 7:24/M
8 ANDRĂ© OASTER 16053 19 57 23:18.46 7:31/M
9 WILLIAM HOOPER 15860 18 58 23:18.57 7:31/M
10 AARON NEWCOMER 15471 17 81 24:09.36 7:47/M
11 NATHANIEL KAROM 15142 18 104 25:07.59 8:06/M
12 RILEY GOODMAN 15936 15 111 25:24.75 8:12/M
13 BRYAR ROSENBERGER 15012 15 176 26:47.56 8:38/M
14 AIDAN CLANCY 15540 15 231 27:52.99 8:59/M
15 JOSH BLOCKER 15702 19 282 29:05.63 9:23/M
16 DYLAN LANDUYT 15873 19 427 31:28.55 10:09/M
17 MATTHEW EMERY 15159 16 498 33:04.96 10:40/M
18 JOHN JOHNSON 15212 18 511 33:25.52 10:47/M
19 CHRIS LAMBERT 15023 17 864 48:37.17 15:41/M
Top

Female 15 to 19

Place Name City Bib No Age Overall Total Time Pace
1 KATIE CENEVIVA 15933 15 25 21:07.37 6:49/M
2 MADIE MORROW 15406 15 73 23:48.70 7:41/M
3 EMMA MOTTO 15483 18 90 24:30.15 7:54/M
4 ARISA TAKEMURA 15934 15 132 25:54.90 8:21/M
5 TAYLER SANNO 15832 15 136 26:02.97 8:24/M
6 ANNA MARIE FOSTIK 15001 19 179 26:48.17 8:39/M
7 ABIGAIL SCHEIB 15177 18 298 29:28.03 9:30/M
8 JAIDYN HENGST 15811 16 312 29:43.42 9:35/M
9 ERICKA MARCHIONE 15060 15 343 30:06.41 9:43/M
10 CLARISSA PAPENFUSE 16079 16 379 30:38.30 9:53/M
11 ABBY ROSSOW 15645 17 425 31:26.32 10:08/M
12 LEXIE LEETE 16052 18 430 31:30.43 10:10/M
13 REBECCA RODDEN 15009 18 452 32:14.31 10:24/M
14 LAILA HOSNI 15519 17 463 32:31.94 10:29/M
15 CAYLA MISNER 15885 18 472 32:39.73 10:32/M
16 ABBY CARON 15204 15 525 33:44.09 10:53/M
17 KAIYA VANJURA 15509 16 532 33:53.54 10:56/M
18 MAKENZIE SMEIGH 15183 17 564 34:56.82 11:16/M
19 CAMRYN SMEIGH 15182 15 565 34:56.94 11:16/M
20 VICTORIA HELFRICK 15795 19 611 36:26.80 11:45/M
21 ELLIANNA BILLOW 15443 19 628 37:00.54 11:56/M
22 MCKINNAH BAKER 16147 15 639 37:11.15 12:00/M
23 TORIE RITTER 15028 17 705 40:27.40 13:03/M
24 OLIVIA STOFFEL 15530 15 812 45:56.96 14:49/M
25 LEXI LUKERT-HOWELL 15359 18 827 46:50.56 15:06/M
26 BLANCA GIMENEZ 15770 15 951 56:59.90 18:23/M
Top

Male 20 to 24

Place Name City Bib No Age Overall Total Time Pace
1 COOPER YINGLING 16046 21 46 22:45.03 7:20/M
2 THOMAS SATTLER 15960 24 49 22:52.93 7:23/M
3 BURKE SUNDERLAND 15588 22 75 23:51.54 7:42/M
4 STUART HELSTER 15029 24 157 26:29.66 8:33/M
5 CHRISTOPHER JOHNS 15862 21 219 27:39.63 8:55/M
6 NICHOLAS SWEENEY 15537 24 319 29:49.59 9:37/M
7 BRIAN NGUYEN 15886 20 406 30:58.25 9:59/M
8 BRADLEY JENNE 15867 21 429 31:29.07 10:09/M
9 COLIN BRADLEY 15542 24 661 37:56.36 12:14/M
10 ANTHONY KRIZNIK 15327 20 903 51:16.33 16:32/M
11 TOM MCQUIGGAN 15221 24 956 57:38.45 18:35/M
Top

Female 20 to 24

Place Name City Bib No Age Overall Total Time Pace
1 ALEXIS BLACK 15992 23 30 21:31.34 6:56/M
2 ALISSA WINTERS 15247 22 40 22:33.09 7:16/M
3 RACHEL GLATT 15903 23 50 22:53.18 7:23/M
4 CAMILLE SMITHBAUER 15904 23 65 23:36.58 7:37/M
5 RACHEL HOELLMAN 15964 23 77 23:57.35 7:44/M
6 MEGAN MANGINE 15627 24 89 24:28.52 7:54/M
7 MELISSA CARDILE 15818 23 94 24:34.56 7:55/M
8 MANDY RUNKLE 15057 24 135 26:02.13 8:24/M
9 AMY MENGES 15814 22 149 26:26.06 8:32/M
10 HANNAH JACOBS 15578 21 151 26:26.31 8:32/M
11 ISABELLE MENGES 15843 24 152 26:26.62 8:32/M
12 ROBIN ALSHER 15938 23 226 27:44.89 8:57/M
13 MARISSA STECK 16072 21 245 28:20.41 9:08/M
14 BRIELLE FOLEY 15977 21 249 28:25.35 9:10/M
15 OLIVIA KADING 15694 22 287 29:10.20 9:25/M
16 ELIZABETH HATCH 15672 22 320 29:49.60 9:37/M
17 HANNAH WYRICK 15561 21 331 29:56.97 9:39/M
18 ALAINA LANDIS 15019 23 341 30:05.81 9:42/M
19 NICOLE LUFT 15930 24 347 30:12.85 9:45/M
20 KELSEY STINE 15695 22 391 30:45.12 9:55/M
21 KRISTELLE BELTRAN 15027 24 407 31:02.00 10:01/M
22 LYDIA BENNER 15169 22 412 31:05.21 10:02/M
23 SARA MERKLE 15376 24 433 31:38.34 10:12/M
24 HAVEN SHAFFER 15417 20 434 31:38.96 10:12/M
25 KATELYN KOSER 15319 24 441 31:57.79 10:18/M
26 CASSANDRA KOSER 15282 20 443 31:58.76 10:19/M
27 SARAH HUMES 15962 24 471 32:38.05 10:32/M
28 JESSICA SPRECHER 15146 24 478 32:42.92 10:33/M
29 EMILY MAXWELL 15500 23 481 32:45.27 10:34/M
30 NICOLE JOHNSTON 15377 24 509 33:17.54 10:44/M
31 DESIREE MYERS 15899 23 514 33:27.09 10:47/M
32 SHAWNA BUCKWALTER 15900 23 515 33:27.21 10:47/M
33 TIFFANY HEISEY 15290 20 523 33:34.92 10:50/M
34 JENNIE KRIZNIK 15326 23 528 33:47.30 10:54/M
35 BROOKE CICCOCIOPPO 15337 24 538 34:02.63 10:59/M
36 BRIANNE KARCESKY 15589 22 543 34:06.07 11:00/M
37 ASHLEY TAYLOR 15251 21 557 34:43.57 11:12/M
38 HALEY DERK 15693 20 584 35:43.33 11:31/M
39 NOELLE THOMAS 16058 20 602 36:08.10 11:39/M
40 HANNAH CUSTER 15558 20 627 37:00.51 11:56/M
41 MELANIE RYAN 15092 23 649 37:32.56 12:06/M
42 REBECCA LANDVATER 15429 21 680 38:49.47 12:31/M
43 SARAH GOLD 15059 20 693 39:28.88 12:44/M
44 SHANNON KOST 15184 24 695 39:35.16 12:46/M
45 MEGHAN WILT 15050 23 697 39:42.32 12:48/M
46 SAMANTHA GOODRICH 15548 23 719 41:02.95 13:14/M
47 HANNAH LANDVATER 15430 24 732 41:30.46 13:23/M
48 LAUREN MEILI 15144 24 741 42:13.53 13:37/M
49 ALLISON KATZAMAN 15498 24 756 42:50.13 13:49/M
50 ERICA FEASER 15481 23 793 44:47.76 14:27/M
51 BRIANA SHEELER 15532 24 840 47:08.31 15:12/M
52 JORDAN BOARMAN 15868 24 845 47:20.27 15:16/M
53 KATIE SCARBOROUGH 15735 24 868 48:42.77 15:43/M
54 MARGO JACOBY 15116 23 875 48:54.18 15:46/M
55 ALEXIS DUPLER 15117 24 876 48:54.18 15:46/M
56 MORGAN YIENGST 15115 23 878 48:54.40 15:46/M
57 NAOMI GEORGE 15191 21 899 51:13.60 16:31/M
58 LYDIA GEORGE 15239 23 900 51:14.66 16:32/M
59 MIA MCGRATH 15283 24 918 53:17.72 17:11/M
60 CORTNEY ATKINSON 15132 23 955 57:29.12 18:33/M
61 KEARSTON MCQUIGGAN 15220 23 957 57:40.01 18:36/M
Top

Male 25 to 29

Place Name City Bib No Age Overall Total Time Pace
1 ERIC BLACK 15696 27 16 20:23.91 6:35/M
2 BEN GRIMME 15374 25 31 21:38.75 6:59/M
3 CHRISTOPHER JONES 15738 27 33 21:54.20 7:04/M
4 PAUL ENGELKEMIER 15424 27 41 22:40.05 7:19/M
5 JACOB STIMER 15983 27 52 22:57.94 7:24/M
6 ZAKK WIEST 15917 27 54 23:14.72 7:30/M
7 MARK FORTELKA 15392 27 56 23:17.18 7:31/M
8 BRIAN GRZYBOSKI 15372 28 63 23:30.53 7:35/M
9 COLE TAYLOR 15253 25 70 23:46.50 7:40/M
10 ROBERT BALES 15345 27 72 23:48.41 7:41/M
11 JOSH EBRIGHT 15998 25 115 25:34.07 8:15/M
12 LUKE ATKINS 15981 26 117 25:35.32 8:15/M
13 RYAN WILSON 15180 29 123 25:42.95 8:17/M
14 DAVID SHAFFER 15463 28 125 25:48.07 8:19/M
15 DAVID MECKES 15462 27 130 25:53.38 8:21/M
16 MARTEN WESTON 15426 26 137 26:02.99 8:24/M
17 JOSEPH KATACINSKI 15989 28 147 26:19.80 8:29/M
18 ETHAN WOMER 15185 25 155 26:28.76 8:32/M
19 JEFFREY KARL 15513 29 173 26:45.87 8:38/M
20 JONNY GOMAZ 15931 26 346 30:11.90 9:44/M
21 BRETT FINLEY 15224 25 368 30:25.50 9:49/M
22 DEVON MALDONADO 16076 25 387 30:44.32 9:55/M
23 BRIAN DVORSKY 15781 27 415 31:07.62 10:02/M
24 JAMES BROWN 15268 26 594 35:55.62 11:35/M
25 ANGEL ASENCIO 15223 29 659 37:52.70 12:13/M
26 TYLER HULTGREN 16088 25 683 38:52.54 12:32/M
27 SETH FUNK 15630 26 708 40:36.33 13:06/M
28 ANTHONY ASH 15794 29 768 43:24.89 14:00/M
29 EMETT KOLLER 15020 26 786 43:54.56 14:10/M
30 BENJAMIN THUMMA 15720 29 802 45:25.37 14:39/M
31 MARK CRUMMETT 15531 29 843 47:12.54 15:14/M
32 JUSTIN HERR 15734 29 867 48:41.95 15:42/M
33 BRIAN JANKOWSKI 15045 25 920 53:22.06 17:13/M
Top

Female 25 to 29

Place Name City Bib No Age Overall Total Time Pace
1 AMANDA KERNO 15890 27 15 20:23.73 6:35/M
2 LAUREL JONES 15714 26 19 20:40.51 6:40/M
3 TARA KLINE 16070 29 36 22:11.10 7:09/M
4 JESSICA WILLHIDE 15782 27 42 22:40.48 7:19/M
5 MADELINE FORTELKA 15391 28 55 23:17.05 7:31/M
6 KELSEY WINTERS 15246 26 61 23:27.40 7:34/M
7 BRIDGET FOX 15768 25 68 23:42.10 7:39/M
8 ABIGAIL TROSTLE 15106 29 78 24:02.29 7:45/M
9 MEGAN SORICELLI 15882 29 97 24:36.55 7:56/M
10 BRANDI TIPTON 15556 28 98 24:50.01 8:01/M
11 MAGEN MILLER 15628 27 105 25:09.35 8:07/M
12 LINDSAY KAMARER 15942 29 126 25:49.39 8:20/M
13 MONICA PADGETT 15911 28 133 25:56.83 8:22/M
14 ALYSSA DIETRICH 15706 26 154 26:27.63 8:32/M
15 ALYSSA APPLEBY 15810 28 156 26:29.56 8:33/M
16 ANNE MANEVAL 15764 29 162 26:32.46 8:34/M
17 KAYLA ATTIG 15703 27 187 26:59.02 8:42/M
18 YSMAINE DOMICIANO 16068 29 197 27:11.47 8:46/M
19 LEANNE SHOEMAKER 16037 26 215 27:36.35 8:54/M
20 ASHLEY VOGAN 15978 26 221 27:40.26 8:55/M
21 CAITLYN MICHAEL 15678 29 228 27:47.98 8:58/M
22 KATIE O'FLAHERTY 15123 29 247 28:22.52 9:09/M
23 REBECCA SNYDER 15043 29 251 28:25.56 9:10/M
24 CHARLOTTE DORSEY 15543 25 253 28:28.90 9:11/M
25 CAITLIN ROYER 15304 29 261 28:40.31 9:15/M
26 DARIELLE KARL 15512 27 276 28:57.95 9:20/M
27 ROBYN BLOCKER 15506 26 284 29:06.79 9:23/M
28 ASHLEY BARNHART 15505 27 286 29:09.90 9:24/M
29 ASHLEY NEIDIG 15990 27 295 29:22.01 9:28/M
30 JILL LEREW 15418 28 306 29:40.86 9:34/M
31 JACQUELYN KOHLER 15731 26 315 29:48.87 9:37/M
32 ALYSON GEBHARD 15536 25 318 29:49.35 9:37/M
33 CORTNEY FULMORE 15669 25 328 29:55.15 9:39/M
34 MEGAN MOORE 15909 28 336 30:00.07 9:41/M
35 MARY KATE GRZYBOSKI 15373 28 342 30:06.15 9:43/M
36 KATIE KUZMINSKI 15427 26 348 30:13.14 9:45/M
37 TARA GUASCH 15088 27 356 30:18.79 9:46/M
38 LINDSAY BERKSTRESSER 15271 25 357 30:18.85 9:46/M
39 ANDREA DOTY 16034 26 362 30:21.11 9:47/M
40 DIANA YOST 15217 25 366 30:25.07 9:49/M
41 BRITTANY MAROL 15309 26 374 30:29.84 9:50/M
42 KAYLA KARIM 15332 28 378 30:37.13 9:53/M
43 ARIEL HOSTETTER 15614 29 385 30:42.75 9:54/M
44 ANGELA PICKERILL 15751 27 386 30:43.33 9:55/M
45 REBECCA MYERS 15594 28 392 30:49.06 9:56/M
46 KAITLYN DAY 15095 29 411 31:04.94 10:01/M
47 HOLLYNN PAUL 15690 28 428 31:28.82 10:09/M
48 LYNDSAY JACOBS 15875 28 435 31:45.39 10:15/M
49 SARAH RICE 15816 26 438 31:52.35 10:17/M
50 LAURA SENSENIG 15565 29 447 32:04.16 10:21/M
51 LAURA TAWNEY 15928 27 455 32:15.23 10:24/M
52 NATALIE DEIBLER 15758 26 468 32:34.46 10:30/M
53 AMANDA NORRIS 15118 27 496 33:03.43 10:40/M
54 DARRIELLE LUBAS 15412 27 507 33:17.28 10:44/M
55 LINDSAY SCHAAF 15676 29 512 33:25.98 10:47/M
56 ADRIENNE WIRTH 15806 27 526 33:45.20 10:53/M
57 ASHLEIGH GLASS 15054 27 548 34:15.30 11:03/M
58 COURTNEY SPESS 15704 26 551 34:16.79 11:03/M
59 JES BARTSCH 15566 29 558 34:43.78 11:12/M
60 ANDREA DUNKLE 16041 28 563 34:56.77 11:16/M
61 KAYELYNN PITTMAN 16083 25 574 35:09.39 11:20/M
62 TIA LONG 15710 29 575 35:10.11 11:21/M
63 ALLISON MILLER 15288 27 579 35:22.10 11:25/M
64 KATHERINE FREY 15807 27 591 35:50.48 11:34/M
65 JESSICA WALTMAN 15160 26 596 36:01.99 11:37/M
66 LINDSEY BUKER 15179 29 600 36:04.95 11:38/M
67 LORI NOBLE 15267 25 604 36:09.71 11:40/M
68 ASHLEY DAVIDSON 15722 27 605 36:10.37 11:40/M
69 KRISTA WOODFORD 15921 26 612 36:29.14 11:46/M
70 KAITLYN WINTON 15552 25 620 36:45.47 11:51/M
71 MELINDA WILK 15580 28 626 36:59.28 11:56/M
72 KRISTYN GROSS 15918 29 630 37:04.82 11:57/M
73 LACEY KELLER 15492 27 636 37:10.04 11:59/M
74 LAURA BATES 15796 27 638 37:10.39 11:59/M
75 ALYSSA NIEMEYER 15749 29 643 37:12.89 12:00/M
76 BRITTANY MARTIN 16040 26 650 37:33.36 12:07/M
77 COLLEEN ROGERS 15798 29 657 37:51.61 12:13/M
78 MOLLY STAPLETON 15541 26 660 37:55.94 12:14/M
79 ASHLEY LUKASAK 15581 26 665 38:08.12 12:18/M
80 REBECCA LYON 15387 29 669 38:13.04 12:20/M
81 MORGAN ARENTZ 15064 25 674 38:28.72 12:25/M
82 AMANDA POLAHA 15504 27 675 38:34.28 12:26/M
83 NATALIE HULTGREN 15330 25 682 38:52.48 12:32/M
84 CARRIE ZIMMERMAN 15534 29 694 39:29.48 12:44/M
85 DANIELLE WIEGER 15689 25 698 39:48.73 12:50/M
86 COURTNEY CHADBOURN 15778 27 704 40:18.40 13:00/M
87 OLIVIA MOYER 16032 25 709 40:41.45 13:07/M
88 KAYLA ROST 15111 27 710 40:44.31 13:08/M
89 TERRY LEIBY JR. 15916 28 720 41:05.36 13:15/M
90 EMILY EASTER 15489 28 721 41:06.23 13:15/M
91 LAURA MORTON 15005 26 722 41:06.56 13:15/M
92 AMBER FULTZ 15403 27 725 41:10.92 13:17/M
93 SHELBIE LEIBY 15915 25 727 41:16.71 13:19/M
94 ALYSIA SHOEMAKER 15383 25 736 41:44.92 13:28/M
95 DANIELLE GRAHAM 15450 25 743 42:14.00 13:37/M
96 NYOMI PAINE 15122 26 744 42:24.68 13:41/M
97 SAM CRAMER 15947 29 745 42:26.56 13:41/M
98 FELICIA COTTRILL 15101 25 764 43:14.80 13:57/M
99 JAIANNA KUNKLE 15793 26 770 43:26.29 14:01/M
100 LAUREN POPECK 16096 27 776 43:40.06 14:05/M
101 OLIVIA WEIDEMANN 15828 27 777 43:40.63 14:05/M
102 REBECCA LEASE 15619 25 778 43:41.35 14:05/M
103 KALEE MESSENGER 15360 29 787 44:01.75 14:12/M
104 LIZ TUTURICE 15590 29 790 44:06.70 14:14/M
105 MORGAN KUNKEL 15474 29 794 44:47.97 14:27/M
106 LISA FOTI 16054 28 801 45:22.18 14:38/M
107 MANDY HOPKINS 15091 29 806 45:30.88 14:41/M
108 BETH TROPP 15138 27 828 46:50.69 15:06/M
109 SHANNON KAUFMAN 15473 26 829 46:54.26 15:08/M
110 CHRISTA MURPHY 15547 25 833 46:58.28 15:09/M
111 CORTNEY SCHOENBERGER 15010 27 844 47:19.63 15:16/M
112 MEGAN ZINGARETTI 15300 28 849 47:45.94 15:24/M
113 DENNA BATEMAN 15110 29 853 48:07.24 15:31/M
114 KAITLYN SHIFFLET 15490 28 858 48:20.99 15:35/M
115 ELIZABETH YARGER 15801 28 859 48:21.39 15:36/M
116 KARA HERR 15733 28 866 48:41.68 15:42/M
117 KARA MAE HAMILL 15683 27 888 49:52.45 16:05/M
118 MARIKA MERRITT 15222 29 890 50:07.88 16:10/M
119 SAMANTHA RIMBEY 15564 25 910 52:33.05 16:57/M
120 TAYLOR WHITCOMB 15015 27 923 53:23.80 17:13/M
121 RENEE SUTER 15044 25 924 53:25.39 17:14/M
122 SAMANTHA RHOADES 15618 25 928 53:37.76 17:18/M
123 BRITTANI ATKINSON 15133 25 943 55:40.84 17:57/M
124 JENNIFER ENGLANDER 15134 25 944 55:42.67 17:58/M
125 COURTNEY YOST 15201 28 946 56:12.87 18:08/M
126 KAYLA DIES 15682 27 947 56:13.82 18:08/M
127 MEGHAN SHARIF 15602 29 949 56:28.62 18:13/M
128 ABIGAIL LEONARD 15497 27 964 58:01.04 18:43/M
129 LAURA RIVERA 15822 27 965 58:02.69 18:43/M
Top

Male 30 to 34

Place Name City Bib No Age Overall Total Time Pace
1 NATHANIEL CROSS 16051 30 8 19:12.18 6:12/M
2 KOHL MONAHAN 15674 32 18 20:29.79 6:36/M
3 JOSH LYONS 15593 32 26 21:18.47 6:52/M
4 BRIAN BUSTOS 15817 32 67 23:37.60 7:37/M
5 PHIL CARPENTER III 15750 34 82 24:15.38 7:49/M
6 GARY NETTLES 15216 31 83 24:15.67 7:49/M
7 JOSHUA SNYDER 15296 30 129 25:51.34 8:20/M
8 DON PU 15839 30 140 26:08.87 8:26/M
9 ZAK SHARIF 15603 34 144 26:15.88 8:28/M
10 TOMMIE BLACK 15128 32 163 26:32.82 8:34/M
11 THOMAS ZIMMERMAN 15535 30 171 26:44.58 8:37/M
12 JESSE FISHER 15063 31 182 26:49.83 8:39/M
13 JACOB MICHAEL 15677 31 192 27:04.44 8:44/M
14 ANDY MYERS 15381 31 196 27:10.38 8:46/M
15 VITALIY ZAYATS 16035 33 209 27:29.18 8:52/M
16 BROOKS COLUCCI 15465 31 239 28:11.98 9:05/M
17 KYLE RIFE 15646 34 281 29:05.00 9:23/M
18 MATTHEW KOHLER 15732 31 321 29:50.39 9:37/M
19 BRAD MOYER 15949 33 322 29:50.44 9:37/M
20 JOSH OSWALT 15515 32 324 29:51.53 9:38/M
21 KYLE FORBES 15775 34 352 30:17.41 9:46/M
22 DARYO KARIM 16093 32 375 30:30.56 9:50/M
23 JOEL BARNATOVICH 16064 33 397 30:52.96 9:57/M
24 BRANDON PARRY 15616 30 418 31:10.54 10:03/M
25 IAN YARGER 15800 33 432 31:32.59 10:10/M
26 TRENTON MELLOTT 15365 33 445 32:02.85 10:20/M
27 DUSTIN JOYNT 15409 34 457 32:19.05 10:25/M
28 BRANDON METCALF 15988 34 461 32:30.16 10:29/M
29 NYGEL WARD 16039 33 520 33:33.47 10:49/M
30 SCOTT DOJKA 15887 33 541 34:04.05 10:59/M
31 ADAM JARRETT 15258 34 792 44:26.42 14:20/M
32 BENJAMIN KAUFFMAN 15838 34 817 46:31.68 15:00/M
33 CLEMENT MILLER 15460 31 972 1:02:00.52 20:00/M
Top

Female 30 to 34

Place Name City Bib No Age Overall Total Time Pace
1 LACEY OSWALT 15514 31 47 22:45.18 7:20/M
2 HILLARY STRAUSBAUGH 15812 30 74 23:50.00 7:41/M
3 KATIERA NETTLES 15215 31 86 24:21.53 7:51/M
4 KRISTI FRENCH 16089 34 93 24:31.88 7:55/M
5 CHARLOTTE KLINEPETER 15344 30 95 24:34.63 7:55/M
6 ALICIA BAUGHMAN 15804 32 108 25:13.56 8:08/M
7 COLLEEN RAFFERTY 15394 34 139 26:08.04 8:26/M
8 SALLIE BOHLEN 15953 33 146 26:17.36 8:29/M
9 LAUREN ALLEN 15712 33 148 26:20.81 8:30/M
10 ASHLEY HALDEMAN 15792 31 165 26:36.98 8:35/M
11 LAURI WERT 15912 32 180 26:48.73 8:39/M
12 AMY LOFFREDO 15994 30 186 26:57.50 8:42/M
13 ALENA ZAYATS 15242 31 210 27:29.37 8:52/M
14 MONICA KLUNK 15980 34 220 27:39.70 8:55/M
15 KRISTIN THOMAS 15136 31 234 28:01.47 9:02/M
16 CASSANDRA BEAUMONT 15579 32 238 28:10.74 9:05/M
17 NICOLE GALLAGHER 15636 32 255 28:32.99 9:12/M
18 NATALIE PATTERSON 15205 32 258 28:36.89 9:14/M
19 NOELLE STRUBCZEWSKI 15648 33 274 28:56.89 9:20/M
20 LYNDE BENDER 15664 32 289 29:12.57 9:25/M
21 KATE WHITTAKER 15744 31 293 29:19.74 9:27/M
22 ERIN BOSLEY 15334 34 296 29:22.95 9:28/M
23 NIKKI COLUCCI 15464 31 304 29:38.30 9:34/M
24 RACHEL TURNER 15772 30 308 29:42.05 9:35/M
25 JODI SHAFFER 15673 34 323 29:51.15 9:38/M
26 MEGAN LOHR 15746 31 335 29:59.73 9:40/M
27 STEPHANIE JUMPER 15668 30 349 30:13.30 9:45/M
28 COTY WAGNER 15727 30 353 30:17.62 9:46/M
29 MARIA RUSS 15687 34 364 30:23.96 9:48/M
30 JACKIE BOLTZ 15948 31 365 30:24.20 9:48/M
31 RACHEL PARRY 15615 31 377 30:31.99 9:51/M
32 RENEE BORTNER 15235 31 384 30:41.14 9:54/M
33 AMANDA MYERS 15380 30 394 30:51.75 9:57/M
34 MANDIE FUNK 15961 33 399 30:54.49 9:58/M
35 JESSICA WISHARD 15238 33 402 30:55.58 9:58/M
36 APRIL BAUERLIEN 15922 34 409 31:04.10 10:01/M
37 REBECCA SHOEMAKER 15881 32 442 31:58.00 10:19/M
38 KIRSTEN COHICK 15896 33 449 32:06.76 10:21/M
39 AMBER QUANCE 15382 32 459 32:29.37 10:29/M
40 MARISSA JOYNT 15408 33 460 32:30.04 10:29/M
41 RITA METCALF 15967 34 462 32:31.20 10:29/M
42 LAURA MELLOTT 15368 33 466 32:33.11 10:30/M
43 CARA KRODEL 15112 32 469 32:34.81 10:30/M
44 AMBER KOVACK 15499 33 480 32:44.54 10:34/M
45 ANDREA HOLDBROOK-SMITH 16077 30 482 32:46.98 10:34/M
46 HEATHER NUNEMAKER 15496 30 484 32:48.21 10:35/M
47 CAITLIN MURRAY 15186 33 494 32:59.14 10:38/M
48 SHEENA SNYDER 15103 33 495 33:01.34 10:39/M
49 ASHLEY BRICKER 15393 32 499 33:05.04 10:40/M
50 ERIN LIS 15071 30 506 33:16.87 10:44/M
51 ASHLEY KLICK 15518 33 519 33:31.65 10:49/M
52 KRISTYN NUNEMACHER 15363 34 550 34:16.75 11:03/M
53 SHEILA FOSTER 15323 32 555 34:29.78 11:07/M
54 LAUREN LAPOINT 15475 32 560 34:47.78 11:13/M
55 JOSIE CRUZ 15789 32 562 34:53.87 11:15/M
56 BRITTANY FRANKLIN 15745 30 593 35:55.45 11:35/M
57 TARA SHANK 15836 31 597 36:02.27 11:37/M
58 RICKI ETTINGER 15061 30 601 36:07.59 11:39/M
59 KRISTIN COLLAZO 15459 31 603 36:08.39 11:39/M
60 KENDRA REEDER 15721 30 609 36:20.25 11:43/M
61 TARA KATERMAN 15476 34 613 36:30.50 11:46/M
62 SARAH BOHRER 15006 34 618 36:44.72 11:51/M
63 MELISSA FRANK 15643 34 622 36:49.41 11:53/M
64 TOMANN RICE 15736 33 648 37:30.75 12:06/M
65 SARAH CREGGER 15255 30 667 38:12.67 12:19/M
66 KAYLEIGH MORRISON 15671 32 672 38:23.33 12:23/M
67 SARAH CHAKRAVARTY 15849 30 673 38:27.58 12:24/M
68 MELODY MEAD 15250 31 678 38:36.25 12:27/M
69 ERIN FUNK 15629 31 707 40:35.91 13:05/M
70 SIERRA BILOUS 15926 33 712 40:46.00 13:09/M
71 LEANNE FAIRCHOK 15662 33 734 41:40.76 13:26/M
72 NIKKI KESSLER 15384 34 737 41:45.35 13:28/M
73 MEGAN KULAK 15013 32 738 41:51.39 13:30/M
74 SARAH MILLER 15458 32 750 42:34.71 13:44/M
75 AMANDA MARTIN 15074 31 755 42:50.09 13:49/M
76 KRISTEN FRITZ 16075 32 783 43:50.21 14:08/M
77 ALEANA JARRETT 15259 31 791 44:24.25 14:19/M
78 KORI SHUTTLESWORTH 15925 34 800 45:19.50 14:37/M
79 MICHELE UNRUH 15661 32 803 45:26.46 14:39/M
80 SHANNON GUMMO 15388 32 820 46:41.63 15:04/M
81 JENNIFER SIMPSON 15521 34 821 46:43.24 15:04/M
82 SARAH HURST 15389 32 824 46:46.99 15:05/M
83 STACEY LYONS 15592 33 869 48:43.42 15:43/M
84 RACHEL BRICKER 15613 33 891 50:14.92 16:12/M
85 ELISE EDDY 15284 30 896 50:45.92 16:22/M
86 ALEE LONG 15192 31 898 51:13.39 16:31/M
87 MICHELLE HARDY 15042 33 913 52:51.02 17:03/M
88 DANIELLE GUILLES 15219 31 914 52:58.39 17:05/M
89 MARIA THEODORATOS 15889 33 917 53:16.41 17:11/M
90 CHRISTINA REISCH 15420 33 931 54:15.65 17:30/M
91 LINDSAY GETZ 15599 33 932 54:16.38 17:30/M
92 JENNIE GLOVER 15157 32 941 55:27.09 17:53/M
93 JESSICA WILLIAMS 15181 32 942 55:28.59 17:54/M
94 KARA STINE 15493 32 961 57:58.88 18:42/M
95 KARI SILVA 15611 31 967 59:38.90 19:14/M
96 KRISTEN MILLER 15461 31 973 1:02:12.52 20:04/M
97 ASHLEY WAMBOLD 15834 33 976 1:04:07.68 20:41/M
Top

Male 35 to 39

Place Name City Bib No Age Overall Total Time Pace
1 MICHAEL CARDEN 15555 37 9 19:32.29 6:18/M
2 CHRIS CISCO 15583 36 17 20:26.29 6:35/M
3 ERIC THORNBURG 15278 39 27 21:22.53 6:54/M
4 DAN PRICE 15196 35 29 21:27.76 6:55/M
5 SHANE CRUSEY 16045 37 38 22:14.30 7:10/M
6 JESS HORN 15582 36 143 26:12.66 8:27/M
7 MICHAEL GOFF 15651 36 158 26:29.75 8:33/M
8 JUSTIN HOKE 15604 38 190 27:00.67 8:43/M
9 KEITH SWIGERT 16043 36 191 27:02.52 8:43/M
10 ERIC WRIGHT 15240 37 222 27:41.05 8:56/M
11 CHAD BISH 15336 36 227 27:46.19 8:57/M
12 MATTHEW DOWS 15787 39 257 28:33.59 9:13/M
13 STEVEN JONES 15402 38 264 28:43.42 9:16/M
14 STEVE ANDERSON 15959 37 334 29:59.57 9:40/M
15 TIM HINKSON 15666 39 345 30:11.10 9:44/M
16 AARON FOLEY 15356 38 367 30:25.35 9:49/M
17 JOSEPH BROWN 16065 36 398 30:53.28 9:58/M
18 DAVID KRATZER 15034 37 400 30:54.89 9:58/M
19 MICHAEL KRALL 15780 36 414 31:07.35 10:02/M
20 JON YARGER 16087 35 431 31:31.18 10:10/M
21 ANTHONY CARVER 16048 38 437 31:50.43 10:16/M
22 MATT KORDISH 15226 39 489 32:54.21 10:37/M
23 BORIS BERDNICK 15479 38 517 33:29.36 10:48/M
24 KEVIN PAPULA 15638 36 587 35:46.16 11:32/M
25 CHAD REIGLE 16063 36 676 38:34.42 12:26/M
26 TIMOTHY FRENCH 15287 35 679 38:36.82 12:27/M
27 BEN EISEMANN 15411 37 808 45:31.34 14:41/M
28 PATRICK JACOBS 15876 35 823 46:45.35 15:05/M
29 SCOTT RUNKLE 15786 35 836 46:59.05 15:09/M
30 CHRIS EARLEY 15313 35 838 47:05.25 15:11/M
31 BOJAN ZORKIC 15109 37 854 48:07.83 15:31/M
Top

Female 35 to 39

Place Name City Bib No Age Overall Total Time Pace
1 NICOLE HESS 15815 38 62 23:30.02 7:35/M
2 JANICE BISH 15335 35 76 23:56.04 7:43/M
3 CHRISTINE EINOLF 15173 39 84 24:20.35 7:51/M
4 LAURA GURRERI 16069 39 85 24:21.08 7:51/M
5 MEREDITH SHAMBAUGH 15621 39 91 24:30.26 7:54/M
6 JAMIE CROFT 15520 38 92 24:30.30 7:54/M
7 BONNIE CRAIG 15495 36 141 26:11.26 8:27/M
8 JAMIE PARSONS 15660 39 167 26:40.87 8:36/M
9 STEPHANIE KERN 15701 37 174 26:46.82 8:38/M
10 REBECCA SEMKE 15880 37 184 26:56.32 8:41/M
11 MELISSA WRIGHTSON 15243 39 185 26:57.29 8:42/M
12 COURTNEY DUBBLE 15697 36 188 26:59.79 8:42/M
13 ELIZABETH WICK 15572 37 203 27:19.57 8:49/M
14 DAWN O'NEILL 15137 37 212 27:32.84 8:53/M
15 ASHLEY SNYDER 15295 37 214 27:35.00 8:54/M
16 JENN PLATTENBURG 15449 35 236 28:07.68 9:04/M
17 MYINE PALMER 15510 35 237 28:09.87 9:05/M
18 KIMBERLY OGLE 15207 39 244 28:20.03 9:08/M
19 CHRISTINA CARDEN 15554 35 250 28:25.36 9:10/M
20 AMANDA VOGEL 16084 35 252 28:27.75 9:11/M
21 SARA HARROWER 15341 38 254 28:28.93 9:11/M
22 ERICA SOBOL 16066 38 256 28:33.37 9:13/M
23 CARLY BALDWIN 15597 35 263 28:41.54 9:15/M
24 MARYALYCE MCCORMICK 15835 38 275 28:57.78 9:20/M
25 REBECCA RAGER 15684 38 283 29:06.40 9:23/M
26 AMBER FINE 15407 35 285 29:07.95 9:24/M
27 KATE LAWRENCE 15070 38 292 29:18.51 9:27/M
28 PAMELA CORNETTO 15874 38 294 29:21.99 9:28/M
29 CAITLIN KRATZER 15033 36 301 29:35.25 9:33/M
30 JENNIFER SHEARER 15774 37 309 29:42.34 9:35/M
31 MORGAN GOODLING 15956 36 317 29:49.31 9:37/M
32 JESSICA BLACK 15129 37 325 29:51.54 9:38/M
33 LORI SHENEMAN 15150 38 327 29:54.05 9:39/M
34 JENNIFER SHEETZ 15153 35 330 29:56.63 9:39/M
35 ELIZABETH CLOUGH 15202 39 337 30:00.40 9:41/M
36 TERRI TRAVERS 15803 38 340 30:04.27 9:42/M
37 MICHELE STUM 15322 35 350 30:13.94 9:45/M
38 CATHERINE KASLUSKY 15439 39 372 30:29.57 9:50/M
39 BROOKE DONOVAN 15419 36 382 30:40.81 9:54/M
40 THERESA GAVIN 15649 35 390 30:44.89 9:55/M
41 LISA BILLER 15866 35 396 30:52.89 9:57/M
42 JILL ANDRECHIK 15716 37 401 30:55.52 9:58/M
43 LAURA ECKERT 15617 36 405 30:57.46 9:59/M
44 LAURA ZEHRING 15718 39 408 31:02.90 10:01/M
45 TIFFANY WATT 15851 37 417 31:08.95 10:03/M
46 BREIA SZAGOLA 15100 35 451 32:13.29 10:24/M
47 DAWN HOPKINS 15929 37 454 32:14.95 10:24/M
48 MANDY CARON 15203 38 464 32:32.80 10:30/M
49 CHRISTINA HINKSON 15302 38 470 32:36.07 10:31/M
50 BRIDGET GOODMAN 15935 39 473 32:40.79 10:32/M
51 DANI BOYER 15779 36 476 32:42.37 10:33/M
52 JANELLE FRENCH 15286 37 477 32:42.73 10:33/M
53 AMANDA MORRISSEY 15035 35 493 32:58.55 10:38/M
54 KERI HALDEMAN 15905 36 505 33:12.58 10:43/M
55 JESSICA PFEIFFER 15131 35 508 33:17.33 10:44/M
56 LAUREN RAMSEY 15717 35 534 33:54.76 10:56/M
57 SARAH ZUCCA 15339 35 539 34:03.19 10:59/M
58 AMANDA DOJKA 15888 35 542 34:04.21 10:59/M
59 KIRSTEN JOHNSON 15754 36 552 34:21.34 11:05/M
60 DANIELLE SPAHR 15748 36 553 34:21.47 11:05/M
61 JENNIFER DUBBS 15965 35 586 35:44.48 11:32/M
62 TIFFANY ZULLINGER 15711 36 588 35:47.47 11:33/M
63 BRITA RUNKLE 15591 35 589 35:47.59 11:33/M
64 MICHELLE EARLEY 15311 36 610 36:20.79 11:43/M
65 MARSHA NOBLE 15275 38 614 36:36.22 11:48/M
66 JENNIFER JELLICK 15396 35 621 36:48.83 11:52/M
67 DAWN MURRAY 15167 37 625 36:56.57 11:55/M
68 STEPHANIE MASUCCI 15333 38 635 37:09.73 11:59/M
69 REBECCA MYERS 15303 38 637 37:10.15 11:59/M
70 AMANDA CONLAN 15120 36 640 37:11.79 12:00/M
71 ERICA MOORE 15437 39 644 37:20.79 12:03/M
72 NICOLE OXENREIDER 15571 39 668 38:13.04 12:20/M
73 GLORIA WEARY 15075 36 677 38:35.26 12:27/M
74 JENNIFER MCPOYLE 15840 38 684 39:07.98 12:37/M
75 CHARLOTTE ANSPACH 15739 37 687 39:20.40 12:41/M
76 TIFFANY VENEY 15093 37 691 39:26.46 12:43/M
77 JESSICA GALAVAGE 15658 39 699 40:03.90 12:55/M
78 KATHRYN BUTLER-HODGE 15357 36 717 41:00.02 13:14/M
79 BRANDI HORNE 15099 36 726 41:16.66 13:19/M
80 MELISSA BERDNICK 15478 39 742 42:13.76 13:37/M
81 ERICA HOCKENSMITH 16082 36 769 43:26.27 14:01/M
82 LYNETTE FOLEY 15355 39 772 43:29.97 14:02/M
83 APRIL MARTIN 15378 36 773 43:30.87 14:02/M
84 MARGEAU CREAM 15082 37 789 44:02.95 14:12/M
85 JENNIFER PRICE 15197 36 798 45:14.32 14:35/M
86 BRID KENYON 15018 39 810 45:52.02 14:48/M
87 TONYA STOFFEL 15529 37 811 45:56.05 14:49/M
88 APRIL EBERSOLE 15600 38 814 46:06.83 14:52/M
89 SHEILA KAUFFMAN 15161 36 818 46:32.20 15:01/M
90 ASHLEY GRAVER 15551 35 822 46:43.63 15:04/M
91 NICOLE FARABAUGH 15016 39 831 46:57.32 15:09/M
92 MEGAN SULEWSKI 15737 36 832 46:57.79 15:09/M
93 JULIE YORK 15305 36 856 48:13.25 15:33/M
94 STACEY NIEDZWIECKI 15254 37 860 48:24.15 15:37/M
95 LISA GARMAN 15264 39 881 49:01.51 15:49/M
96 ANGELA ROUSSELL 15130 38 885 49:42.86 16:02/M
97 REBECCA COULSON 15620 39 892 50:15.31 16:13/M
98 CAROL LAWTON 15294 36 897 50:48.86 16:23/M
99 KYLIE OAKES 15291 39 905 51:28.68 16:36/M
100 LINDSAY BOWMAN 15759 36 907 52:29.36 16:56/M
101 EMILY BERGERON 15265 37 911 52:40.95 16:59/M
102 TARA ZIEGMONT 15598 39 938 54:50.37 17:41/M
103 ERIN ARNOLD 15523 38 948 56:16.29 18:09/M
104 BRONWYN GRAEFFE 15198 36 954 57:28.21 18:32/M
105 AMANDA PROWELL 15494 36 963 57:59.11 18:42/M
106 RACHEL COOK 15612 37 968 59:42.73 19:15/M
Top

Male 40 to 44

Place Name City Bib No Age Overall Total Time Pace
1 JIM SMILEY 15507 43 5 18:43.34 6:02/M
2 JASON LANE 15354 42 24 21:03.54 6:47/M
3 FRANK GIPPETTI 15039 44 32 21:47.59 7:02/M
4 RYAN SHADLE 15609 43 45 22:43.05 7:20/M
5 DOUG CHIZMAR 15995 41 79 24:04.50 7:46/M
6 RYAN RAGER 15685 41 107 25:13.44 8:08/M
7 CHRIS HAWK 15448 40 109 25:22.61 8:11/M
8 EDWARD SHOENBERGER 15162 43 114 25:33.31 8:15/M
9 DENNIS DAVIS 15951 40 134 25:58.93 8:23/M
10 BRADLEY SHAFFER 15154 44 159 26:30.70 8:33/M
11 DANIEL DUBBLE 15698 40 189 26:59.93 8:42/M
12 DAVID OGLE 15820 40 305 29:39.98 9:34/M
13 ROBERT KERN 15700 43 310 29:42.56 9:35/M
14 MICHAEL GARLAND 16049 40 344 30:08.53 9:43/M
15 BRANDON CAVENAUGH 16055 41 404 30:57.31 9:59/M
16 STEVE BONETTI 15853 40 416 31:08.23 10:03/M
17 BRIAN STETLER 15740 43 456 32:16.48 10:25/M
18 KEN ARNOLD 15522 44 490 32:54.93 10:37/M
19 CHRIS PAONE 15791 42 502 33:10.35 10:42/M
20 JASON ROBINSON 15986 43 504 33:11.94 10:42/M
21 MICHAEL KOSH 15269 40 516 33:28.95 10:48/M
22 SHAWN CONNOR 15954 43 647 37:24.75 12:04/M
23 RON CRAWFORD 15945 42 662 37:57.08 12:15/M
24 EMORY RANK 15708 41 692 39:27.52 12:44/M
25 DAVID HENKEL 15208 43 748 42:30.87 13:43/M
26 RANDAL NISLY 15606 44 753 42:36.64 13:45/M
27 TJ QUEEN 15102 43 762 43:14.05 13:57/M
28 ANDY YORK 15306 41 857 48:16.93 15:34/M
29 JEFF SNYDER 16092 44 880 49:01.11 15:49/M
30 CHRISTOPHER DUNCAN 15906 42 916 53:02.86 17:06/M
31 MATTHEW DRENNING 15062 43 919 53:20.04 17:12/M
Top

Female 40 to 44

Place Name City Bib No Age Overall Total Time Pace
1 KIM ROZELLE 15549 44 34 21:58.00 7:05/M
2 DONNA SIMS 15877 44 87 24:21.88 7:51/M
3 JANE ACQUILANO 15193 42 103 25:00.93 8:04/M
4 KERA FRINGER 15452 43 113 25:32.16 8:14/M
5 JESS METZ 15688 40 116 25:35.31 8:15/M
6 DANIELLE DUNN 15686 40 118 25:35.39 8:15/M
7 ERIN SMEIGH 15831 40 138 26:07.34 8:25/M
8 KATHLEEN MECKLEY 15848 44 145 26:17.28 8:29/M
9 JENEVE STAMBAUGH 15432 40 150 26:26.17 8:32/M
10 MEGAN CASEY 15559 44 169 26:42.15 8:37/M
11 CARLY STERNER 15847 44 201 27:16.42 8:48/M
12 NICOLE PATTERSON 15248 41 205 27:20.29 8:49/M
13 KRISTA WOLFE 15245 41 206 27:20.37 8:49/M
14 ERIKA STROUT 15456 41 211 27:30.35 8:52/M
15 STACEY PLANTE 15315 44 232 27:59.98 9:02/M
16 STACEY CONNORS 15364 40 248 28:23.83 9:09/M
17 CHRISTIANNA ALLEMAN 15367 43 262 28:40.86 9:15/M
18 JAMIE ALBANO 15491 44 268 28:44.83 9:16/M
19 DAWN YINGLING 15444 44 278 28:59.13 9:21/M
20 KIM TOTARO 15631 40 303 29:37.70 9:33/M
21 JANICE SHADLE 15608 42 313 29:44.65 9:35/M
22 SUZANNE HENSLER 15946 40 314 29:47.42 9:36/M
23 KATHY SCHWANG 15891 43 316 29:49.22 9:37/M
24 AMANDA STANLEY 16059 41 361 30:20.91 9:47/M
25 AMANDA WALLICK 15017 43 370 30:27.83 9:49/M
26 GRETCHEN RICHARDSON 15438 41 373 30:29.80 9:50/M
27 MELODY PAULISHAK 15667 42 376 30:31.39 9:51/M
28 VICKI KANN 15139 43 395 30:52.58 9:57/M
29 ADRIENNE WILLIAMSON 15647 43 403 30:56.14 9:59/M
30 CONNIE STIFFLER 15913 44 419 31:15.30 10:05/M
31 KIMBERLY BENNETT 15747 44 448 32:05.37 10:21/M
32 SONJA MACWHINNEY 15421 40 453 32:14.40 10:24/M
33 MICHELLE DREIBELBIS 15757 43 467 32:34.38 10:30/M
34 JENNIFER PRICE 15047 42 486 32:50.84 10:35/M
35 KELLY LEBO 15397 42 492 32:55.86 10:37/M
36 JENNELL WRIGHT 15966 41 497 33:04.66 10:40/M
37 MEGAN PAONE 15790 40 503 33:10.82 10:42/M
38 KIM HOKE 15605 42 522 33:34.52 10:50/M
39 SEASONS PEQUIGNOT 15919 41 535 33:55.97 10:56/M
40 APRIL GRAHAM 15256 44 540 34:03.72 10:59/M
41 PATIENCE BERDNICK 15508 40 581 35:31.74 11:27/M
42 JONELLE DERK 15692 41 585 35:43.80 11:31/M
43 BRENDA MCDONALD 15454 40 607 36:16.44 11:42/M
44 SANTEE VASQUEZ 15595 44 642 37:12.35 12:00/M
45 SHELLEY STROUSE 15797 41 658 37:52.33 12:13/M
46 ERIN CRAWFORD 15944 44 663 37:57.38 12:15/M
47 MELISSA A FREY 15858 44 690 39:22.20 12:42/M
48 DIANNA LEAMAN 15991 40 713 40:51.62 13:11/M
49 ANGELA SNYDER 15390 42 718 41:02.23 13:14/M
50 HOLLY LUBART 15524 41 731 41:30.38 13:23/M
51 ANDREA DOWELL 15472 41 735 41:41.14 13:27/M
52 JOYCE REID 15104 42 746 42:28.60 13:42/M
53 STEPHANIE HENKEL 15209 44 749 42:31.91 13:43/M
54 LISA NISLY 15607 44 752 42:36.14 13:45/M
55 NATASHA RANK 15707 40 759 43:01.50 13:53/M
56 KERRY GILL 15272 44 765 43:14.96 13:57/M
57 DENYEL EFFINGER 16036 42 771 43:26.66 14:01/M
58 BETH RYAN 15477 40 774 43:33.66 14:03/M
59 NIKKI BOLLINGER 15923 41 775 43:38.20 14:05/M
60 SHANNON REIGLE 16062 44 780 43:49.46 14:08/M
61 NICOLE MIDDLESWORTH 15625 41 784 43:50.30 14:08/M
62 CARA EISEMANN 15410 41 804 45:28.09 14:40/M
63 REON BROGAN 15046 43 809 45:39.03 14:44/M
64 ADRIENNE KUHN 15292 43 816 46:29.20 15:00/M
65 JENNIFER JONES 15400 40 825 46:47.22 15:05/M
66 CHRISTINA STETLER 15741 43 830 46:57.17 15:09/M
67 JENNI PAPULA 15639 42 842 47:10.61 15:13/M
68 STACY FETTERS 15228 42 861 48:28.77 15:38/M
69 SHANNON PRIZNIAK 15058 41 865 48:37.58 15:41/M
70 DEBORAH DAPKINS 15640 43 870 48:45.32 15:44/M
71 NICOLE MUNDORF 15371 40 893 50:43.04 16:22/M
72 TIA LANTZ 15370 43 894 50:44.24 16:22/M
73 HEATHER ROSENBERGER 15011 41 921 53:22.18 17:13/M
74 ADELA GRAHAM 15170 42 930 54:13.80 17:29/M
75 SARA WOOLF 15190 41 933 54:16.94 17:30/M
76 MINDY METZ 15022 40 934 54:18.46 17:31/M
77 MELISSA WALMER 15021 40 935 54:20.06 17:32/M
78 MARTA BRADY 15003 43 939 55:09.99 17:47/M
79 KATHRYN HARTZELL 15399 42 962 57:59.09 18:42/M
80 JENNIFER RUIZ 15610 41 970 1:01:54.02 19:58/M
Top

Male 45 to 49

Place Name City Bib No Age Overall Total Time Pace
1 MARCO PALMERINI 15194 49 11 20:01.38 6:27/M
2 MICHAEL LEPLEY 15352 49 23 20:57.09 6:45/M
3 SCOTT BELL 15940 48 39 22:33.02 7:16/M
4 NICK NICHOLS 15957 47 44 22:42.49 7:19/M
5 MATTHEW HATHAWAY 15008 47 80 24:08.59 7:47/M
6 BILL SIMS 15878 47 168 26:41.66 8:36/M
7 HARRY WEBER 16073 49 224 27:43.56 8:56/M
8 BILLY BRINTON 15894 45 297 29:27.89 9:30/M
9 BRIAN SCHWANG 15892 49 299 29:29.04 9:31/M
10 CHUCK CRISCIONE 15347 47 300 29:34.29 9:32/M
11 JEFF BACKER 15321 49 329 29:56.15 9:39/M
12 GEORGE SPORAY 15761 48 338 30:00.91 9:41/M
13 ROGER RICHWINE 16060 47 339 30:03.69 9:42/M
14 DAVE KRIZNIK 15329 49 527 33:47.01 10:54/M
15 DONALD KEAGY 16056 47 570 35:04.79 11:19/M
16 LOREN KOSER 15079 46 582 35:35.34 11:29/M
17 ROD SHIREY 15503 48 652 37:36.47 12:08/M
18 THOMAS DECK 15237 48 716 40:58.43 13:13/M
19 MICHAEL REID 15105 46 747 42:28.61 13:42/M
20 ROBERT FOTI 15126 48 799 45:18.92 14:37/M
21 DOUG HAMILL 15901 45 887 49:51.66 16:05/M
22 PAULA KOONS 15562 48 908 52:31.87 16:56/M
Top

Female 45 to 49

Place Name City Bib No Age Overall Total Time Pace
1 CHRIS EVERLY 15846 49 64 23:32.00 7:35/M
2 CAROL MOTTO 15482 45 96 24:34.66 7:55/M
3 JODI MORROW 15342 49 101 24:55.32 8:02/M
4 TINA MORROW 15405 47 177 26:47.80 8:38/M
5 ALISON REBER 15827 45 181 26:49.36 8:39/M
6 TRACY MILLER 15699 45 200 27:16.17 8:48/M
7 KIM HUYCK 15281 49 208 27:28.90 8:52/M
8 SYLVIA THOMPSON 15632 46 217 27:39.14 8:55/M
9 KIMBERLY DECKMAN 15863 45 233 28:01.41 9:02/M
10 STACY O'TOOLE 15871 45 235 28:03.64 9:03/M
11 NICOLE MASCHMEYER 15585 46 271 28:51.51 9:18/M
12 ANGELA MAYLOCK 15641 49 272 28:53.27 9:19/M
13 RACHEL SCHOFFSTALL 15634 49 273 28:54.33 9:19/M
14 KIM MURRAY 15637 49 277 28:58.30 9:21/M
15 JENNIFER KAROM 15141 45 288 29:10.79 9:25/M
16 JANE EISERT 15145 45 290 29:12.91 9:25/M
17 AMY ROSSOW 15644 47 302 29:35.73 9:33/M
18 ELIZABETH BURCH 15819 49 311 29:43.05 9:35/M
19 AMY BISCHOF 15802 45 354 30:17.74 9:46/M
20 PAMELA DASKALAKIS 16094 45 358 30:18.88 9:46/M
21 KIM SMITH 15262 49 360 30:19.58 9:47/M
22 CHERYL GREEN LEPLEY 15353 48 369 30:26.35 9:49/M
23 SHERRY HARPER 15249 45 383 30:41.07 9:54/M
24 KATHRYN GRIFFITH 15379 46 388 30:44.69 9:55/M
25 CARRIE HORTON 15958 48 389 30:44.72 9:55/M
26 JEN BOWER 15338 46 393 30:51.44 9:57/M
27 SANDI FAIRFIELD 15485 48 413 31:06.58 10:02/M
28 JULIA BELL 15048 45 422 31:18.92 10:06/M
29 EMILY GAINOR 15414 46 474 32:41.01 10:33/M
30 MINDY NGUYEN 15442 48 500 33:07.82 10:41/M
31 ANISSA WAKEFIELD 15441 47 501 33:09.09 10:42/M
32 JOHNYNE MCCLARY 15423 47 521 33:33.57 10:49/M
33 MARY EMERY 15158 47 531 33:51.47 10:55/M
34 SHARON BEAR 15587 48 533 33:54.37 10:56/M
35 JENNIFER HOCKENSMITH 15920 45 536 33:56.27 10:57/M
36 DENISE PRIMAK 15135 47 544 34:14.02 11:03/M
37 KELLY SCHEIB 15176 49 569 35:04.49 11:19/M
38 SHANNON LINN 16050 46 571 35:05.61 11:19/M
39 LAURIE CARNOVALE 15148 49 572 35:06.20 11:19/M
40 KAREN EGOLF 15680 49 578 35:17.30 11:23/M
41 JENNIFER MILLS 15236 47 583 35:35.62 11:29/M
42 PAM WHEAT 15280 49 615 36:36.79 11:48/M
43 SUSAN IRVINE 15681 49 623 36:52.99 11:54/M
44 SUSAN STRICKLAND 15574 46 631 37:04.93 11:57/M
45 JENNIFER SPORAY 15760 45 633 37:05.51 11:58/M
46 JEANETTE COULSTON 15516 47 641 37:12.03 12:00/M
47 DEANNE SHIREY 15502 47 651 37:35.01 12:07/M
48 BRENDA FULLMER 15570 48 666 38:12.63 12:19/M
49 DENISE SNYDER-PATCH 15308 46 671 38:21.97 12:22/M
50 KATHY BURGESS 15788 49 681 38:51.98 12:32/M
51 HOLLY BOUSLOUGH 16031 47 685 39:08.50 12:37/M
52 SUSAN CLARK 15310 46 688 39:21.56 12:42/M
53 MINDY ERDMAN 15845 48 700 40:07.59 12:56/M
54 CONNIE ARTMAN 15939 48 702 40:09.13 12:57/M
55 SARAH ROMBAUER 15833 45 715 40:56.58 13:12/M
56 DANIELLE HORANIC 15189 45 723 41:08.46 13:16/M
57 JEN YOSPA 15031 45 733 41:36.94 13:25/M
58 TRICIA RAUDABAUGH 15468 45 740 42:10.53 13:36/M
59 BETSY KOSER 15080 46 754 42:40.04 13:46/M
60 SONYA HOGSETT 15665 48 763 43:14.66 13:57/M
61 STACY SNYDER 15350 47 805 45:28.30 14:40/M
62 BOBBI KING 16091 45 813 46:06.78 14:52/M
63 ELLEN LEIBSON 15299 47 819 46:35.73 15:02/M
64 MELANIE WEICIKOSKY 15659 47 841 47:09.98 15:13/M
65 CATHERINE LAWRENCE 16078 47 852 48:07.01 15:31/M
66 SUE YINGLING 15884 47 863 48:30.75 15:39/M
67 JEANNETTE KOLE 15038 49 871 48:45.68 15:44/M
68 LAUREEN RAMOS 15187 45 877 48:54.24 15:46/M
69 LORI IMLER 15077 46 879 49:00.33 15:48/M
70 BREE ANDERSON 15546 46 883 49:39.38 16:01/M
71 KATHY BALLEW 15210 49 886 49:49.17 16:04/M
72 CAROLYN HAMILL 15902 46 889 49:58.62 16:07/M
73 TISHA PRESTOPINE 15691 46 902 51:15.13 16:32/M
74 MICHELLE THOMAS 15218 46 915 53:02.84 17:06/M
75 ROBIN CARTWRIGHT 15730 47 922 53:23.03 17:13/M
76 SHANNON SHAFFER 15155 45 936 54:25.54 17:33/M
77 TINA PETRUCCI 15002 49 940 55:11.09 17:48/M
78 PAULA BREZLER 15068 46 945 56:07.64 18:06/M
79 MARA HOOPER 15859 45 958 57:46.17 18:38/M
80 MARIA LAVELLE 15055 49 960 57:53.47 18:40/M
81 DEBBY LAMBERT 15049 45 971 1:01:54.33 19:58/M
Top

Male 50 to 54

Place Name City Bib No Age Overall Total Time Pace
1 NATHAN TALLEY 15152 54 20 20:44.08 6:41/M
2 BOBBY SUNDERLAND 15436 50 88 24:27.04 7:53/M
3 TIMOTHY PALMER 15511 50 102 24:58.84 8:03/M
4 SCOTT SMITH 15975 54 119 25:36.23 8:15/M
5 TIMOTHY SCHEIB 15175 53 193 27:07.89 8:45/M
6 TODD FOGELSANGER 15567 53 230 27:50.58 8:59/M
7 MICHAEL PATCH 15307 52 241 28:14.23 9:06/M
8 RICHARD ROUSH 15979 52 242 28:14.94 9:06/M
9 ROBERT FULTON 15809 51 265 28:43.94 9:16/M
10 LEE CYPHER 15984 52 269 28:45.78 9:16/M
11 JOHN GOGETS 15425 50 380 30:40.18 9:54/M
12 JAMES JOHNSON 15211 52 567 35:04.21 11:19/M
13 FRANCIS FLYNN 15416 54 655 37:48.51 12:12/M
14 CHRISTOPHER ROMBAUER 15968 54 714 40:55.00 13:12/M
15 TED HARRIS 15467 51 847 47:23.76 15:17/M
16 BRIAN METZGER 15361 54 850 47:55.94 15:27/M
Top

Female 50 to 54

Place Name City Bib No Age Overall Total Time Pace
1 TONNA ARBAUGH 16044 50 28 21:23.87 6:54/M
2 DIANNE EVANS 15557 51 170 26:42.46 8:37/M
3 TERI WELSH 15825 51 178 26:47.83 8:38/M
4 MICHELE ARRISON 15635 50 195 27:08.52 8:45/M
5 WENDI SUNDERLAND 15435 52 199 27:12.80 8:46/M
6 KELLI MURPHY 15650 53 207 27:25.42 8:51/M
7 STEPHENIE STECK 16071 52 246 28:21.03 9:09/M
8 NANCY WALKER 15973 51 260 28:39.30 9:15/M
9 KELLY EAKIN FULTON 15808 54 266 28:43.99 9:16/M
10 AMY TALLEY 15151 52 355 30:18.09 9:46/M
11 MARYBETH GREENHALGH 15743 54 381 30:40.56 9:54/M
12 MICHELE CLANCY 15538 50 423 31:24.83 10:08/M
13 MICHELLE BERRY 15206 52 424 31:25.88 10:08/M
14 ALICIA DUNLOP 15453 52 440 31:54.53 10:17/M
15 TRINA SPRECHER 15147 51 479 32:43.31 10:33/M
16 CHRISTY CLIPPINGER 16047 53 485 32:49.53 10:35/M
17 AMY TAYLOR 15252 54 491 32:55.07 10:37/M
18 ADELE DIETRICH 15705 53 510 33:25.24 10:47/M
19 KIMBERLY BULLIVANT 15527 52 513 33:26.05 10:47/M
20 LORI NEWSWANGER 15528 54 518 33:31.50 10:49/M
21 ELIZABETH RICHWINE 15766 50 530 33:47.82 10:54/M
22 JUNE STAGLIANO 15276 52 547 34:15.19 11:03/M
23 KAREN WARE 15910 50 556 34:36.71 11:10/M
24 NICOLE CENEVIVA 15932 51 590 35:48.81 11:33/M
25 VICKI WITTER 15526 51 599 36:04.35 11:38/M
26 KRIS LANDVATER 15428 51 616 36:37.86 11:49/M
27 KELLY PELLEGRINO 15763 52 619 36:45.05 11:51/M
28 LYNNE BROWN 15081 54 624 36:53.50 11:54/M
29 LESLIE BELTRAN 15823 50 653 37:41.74 12:09/M
30 MISTY HINE 15149 51 654 37:42.35 12:10/M
31 KELLI FLYNN 15415 52 656 37:49.13 12:12/M
32 CATHY PANCHER 15844 51 701 40:08.41 12:57/M
33 RICHELLE RITTER 15067 50 706 40:28.23 13:03/M
34 RONDA WICKARD 15140 50 730 41:29.95 13:23/M
35 JOANN BEECHER 15762 53 739 42:10.46 13:36/M
36 BARBARA STEEL 15107 51 758 42:50.31 13:49/M
37 APRIL GOLDBERG 15094 51 761 43:10.70 13:55/M
38 APRIL GLASS 15053 50 767 43:19.96 13:58/M
39 DOROTHY HARNISH 15263 50 779 43:49.29 14:08/M
40 YVONNE SHOFF 15777 52 807 45:31.02 14:41/M
41 DEB WOOD 15445 52 835 46:58.96 15:09/M
42 WENDI GOTWALT 15466 50 848 47:28.03 15:19/M
43 TERESA METZGER 15362 54 851 47:58.23 15:28/M
44 CHRIS GORSUCH 15229 51 862 48:29.96 15:38/M
45 MARIA JONES 15037 54 882 49:08.88 15:51/M
46 CHRISTINE MAYERSKY 15657 51 901 51:15.00 16:32/M
47 SUE KRIZNIK 15328 50 904 51:17.16 16:33/M
48 DELLA KRODEL 15289 52 927 53:32.52 17:16/M
49 AUDRA DAY 15824 51 969 1:01:49.54 19:56/M
Top

Male 55 to 59

Place Name City Bib No Age Overall Total Time Pace
1 RANDY WHITAKER 15729 58 60 23:23.34 7:33/M
2 DAVID WITWER 15987 55 106 25:10.71 8:07/M
3 TOY ARNOLD 15898 55 120 25:36.30 8:15/M
4 JOSE TORRES 15999 55 270 28:50.79 9:18/M
5 BRIAN WEIDMAN 15096 57 410 31:04.45 10:01/M
6 RORY ROSENBERRY 15004 57 559 34:45.87 11:13/M
7 JAMES BREINLINGER 15773 55 592 35:50.50 11:34/M
8 DOUGLAS ALIFF 15108 58 757 42:50.17 13:49/M
9 GEORGE GORSUCH 15230 58 846 47:22.15 15:17/M
10 KRIS KRODEL 15971 56 929 53:43.96 17:20/M
Top

Female 55 to 59

Place Name City Bib No Age Overall Total Time Pace
1 DONNA HUGHES 15316 57 122 25:42.60 8:17/M
2 SANDRA ORRSON 15165 55 131 25:54.19 8:21/M
3 KATHRYN FOSTIK 15000 55 307 29:41.87 9:35/M
4 ANN MYERS 15857 56 545 34:14.72 11:03/M
5 BARBARA MENGES 15852 58 546 34:15.12 11:03/M
6 DONNA FLEHARTY 15850 57 549 34:15.60 11:03/M
7 MARCIE HOFLER 15821 57 554 34:23.95 11:05/M
8 DEBBIE BEUTLER 15320 59 566 34:57.88 11:16/M
9 CHRIS THOMAS 16057 55 576 35:11.02 11:21/M
10 DEE DANSER 15318 58 580 35:25.94 11:25/M
11 PAT MCCLARREN 15231 56 608 36:20.25 11:43/M
12 BARBARA BACIOR 15829 58 617 36:40.24 11:50/M
13 CINDY WILLHIDE 15783 56 689 39:21.71 12:42/M
14 SHERRY MOYER 16033 56 728 41:21.20 13:20/M
15 CATHY GRAVER 15457 57 751 42:34.81 13:44/M
16 ALICE LIPPY 15679 57 760 43:04.52 13:54/M
17 RENEE HARLOW 15260 57 782 43:49.68 14:08/M
18 TERRY O'LEARY 15125 59 797 45:14.29 14:35/M
19 SILVIA RODDEN 15036 58 872 48:46.46 15:44/M
20 SANDRA HENRY 15188 56 874 48:52.27 15:46/M
21 RUTH DANIELS 15285 56 895 50:45.60 16:22/M
22 JILL FREEMAN 15842 59 906 51:57.58 16:45/M
23 SUSAN SUTER 15799 58 925 53:26.64 17:14/M
24 LAURIE BENNER 15168 57 952 57:20.09 18:30/M
25 JUDY ROBINSON 15199 57 953 57:28.03 18:32/M
26 STEPHANIE HECKMAN 15056 59 959 57:52.51 18:40/M
27 TERRY VENNELL 15837 56 975 1:04:07.50 20:41/M
Top

Male 60 to 64

Place Name City Bib No Age Overall Total Time Pace
1 DAVID WAGNER 15813 63 37 22:13.46 7:10/M
2 KENNETH ZEPP 15952 62 161 26:32.29 8:34/M
3 CHARLIE GEROW 15346 63 183 26:51.73 8:40/M
4 JEFF MCCLARREN 15232 60 198 27:12.42 8:46/M
5 WILLIAM BEUTLER 16038 61 225 27:44.76 8:57/M
6 DENNIS WHITAKER 15742 62 279 28:59.68 9:21/M
7 MICHAEL BACIOR 15830 62 595 35:58.55 11:36/M
8 STEVE O'LEARY 15124 60 796 45:13.85 14:35/M
Top

Female 60 to 64

Place Name City Bib No Age Overall Total Time Pace
1 DEB PLUMMER 16030 60 66 23:37.47 7:37/M
2 DIANE BORTNER 15234 62 223 27:42.17 8:56/M
3 JUDY STANK 15997 62 371 30:28.80 9:50/M
4 RUTH LEHR 15195 64 439 31:54.31 10:17/M
5 LINDA STEWART 15433 62 458 32:20.35 10:26/M
6 MARIA KORDISH 15227 64 488 32:53.91 10:36/M
7 JODY KANN 15098 60 606 36:13.83 11:41/M
8 JEAN WEISTER 15385 64 664 38:00.64 12:15/M
9 LINDA SILVERMAN 15351 64 703 40:13.07 12:58/M
10 MILLIE POTTEIGER 15121 60 766 43:19.04 13:58/M
11 SHIRLEY TROMBETTA 15261 60 781 43:49.59 14:08/M
12 JERI MARSHALL 15715 60 795 45:12.10 14:35/M
13 DEBORAH O'CONNOR 15273 64 826 46:47.74 15:05/M
14 KATHY FRICK 15963 60 834 46:58.96 15:09/M
15 SANDY WAGNER 15728 60 873 48:47.24 15:44/M
16 CINDY SMALL 15293 60 926 53:32.11 17:16/M
17 HELEN LIAZIS 15325 61 974 1:03:31.03 20:29/M
Top

Male 65 and Over

Place Name City Bib No Age Overall Total Time Pace
1 BOB WELBY 16108 66 7 19:01.30 6:08/M
2 CHUCK BEAR 15897 66 363 30:21.18 9:47/M
3 LOUIS KORDISH 15225 65 487 32:53.48 10:36/M
4 ROBERT O'CONNOR 15274 68 629 37:04.36 11:57/M
5 STAN WEISTER 15386 65 966 58:36.95 18:54/M
Top

Female 65 and Over

Place Name City Bib No Age Overall Total Time Pace
1 MARY SUSAN WEIDMAN 15771 66 561 34:49.88 11:14/M
2 MARTHA WOLF 15784 67 577 35:12.17 11:21/M
3 STELLA BRUNNER 15769 65 634 37:06.18 11:58/M
4 MARLA MULLINAX 16090 70 646 37:22.59 12:03/M
5 WENDY DIVINEY 15861 66 937 54:42.72 17:39/M